Regional Weather Roundup
Issued by NWS Cleveland, OH

Home | Current Version | Previous Version | Graphics & Text | Print | Product List | Glossary On
Versions: 1 2 3 4 5 6 7 8 9 10 11 12 13 14 15 16 17 18 19 20 21 22 23 24 25 26 27 28 29 30 31 32 33 34 35 36 37 38 39 40 41 42 43 44 45 46 47 48 49 50
000
ASUS41 KCLE 230100
RWRCLE
OHIO REGIONAL WEATHER ROUNDUP
NATIONAL WEATHER SERVICE WILMINGTON, OH
900 PM EDT FRI JUL 22 2016

NOTE: "FAIR" INDICATES FEW OR NO CLOUDS BELOW 12,000 FEET WITH NO
SIGNIFICANT WEATHER AND/OR OBSTRUCTIONS TO VISIBILITY.

OHZ001>008-015>018-024>027-034-035-043-044-230200-
   NORTHWEST OHIO

CITY           SKY/WX    TMP DP  RH WIND       PRES   REMARKS
DEFIANCE       FAIR      87  72  60 CALM      29.96R HX  93
FINDLAY        FAIR      85  70  60 SW5       29.96R
TOLEDO EXPRESS FAIR      85  73  67 W3        29.95R HX  91
TOLEDO EXEC    FAIR      86  72  62 NW6       29.95R HX  92
LIMA           FAIR      83  73  72 SW6       29.99R
$$

OHZ009>014-019>023-028>033-038-089-230200-
   NORTHEAST OHIO

CITY           SKY/WX    TMP DP  RH WIND       PRES   REMARKS
CLE-HOPKINS    FAIR      88  66  48 NW7       29.97R HX  90
CLE-LAKEFRONT  FAIR      80  72  76 SW6       29.94R
CUY CO. ARPT   NOT AVBL
LORAIN-ELYRIA  FAIR      82  71  69 N3        29.96R
ASHTABULA      FAIR      79  72  79 W3        29.95F
AKRON-CANTON   FAIR      83  70  64 SW7       29.98R
WOOSTER        NOT AVBL
MANSFIELD      FAIR      80  72  76 SW7       30.01R
YOUNGSTOWN     FAIR      77  70  79 CALM      29.97R
$$

OHZ042-051>053-060>062-070>072-077>081-230200-
  SOUTHWEST OHIO

CITY           SKY/WX    TMP DP  RH WIND       PRES   REMARKS
CINC-COVINGTON MOCLDY    79  73  82 S6        30.02R
CINC-LUNKEN    FAIR      78  73  84 S5        30.00S
HAMILTON       CLOUDY    83  71  67 S3        30.01R
DAYTON         NOT AVBL
WRIGHT-PAT AFB NOT AVBL
DAYTON GENERAL FAIR      80  70  71 S8        30.01R
WILMINGTON     MOCLDY    77  72  84 S5        30.02R
$$

OHZ036-037-039>041-045>050-054>059-063>069-073>076-082>088-230200-
  CENTRAL AND SOUTHEAST OHIO

CITY           SKY/WX    TMP DP  RH WIND       PRES   REMARKS
COLUMBUS       MOCLDY    80  70  71 SW8       29.99S
OSU AIRPORT    FAIR      80  72  76 SW8       29.99S
BOLTON FIELD   NOT AVBL
RICKENBACK AFB NOT AVBL
NEWARK         FAIR      77  71  82 SW5       29.99S
MARION         FAIR      81  72  74 SW7       29.99R
LANCASTER      FAIR      77  70  79 SW5       30.01F
ZANESVILLE     FAIR      81  67  62 CALM      30.00R
NEW PHILLY     FAIR      84  68  58 W6        29.98R
$$




USA.gov is the U.S. government's official web portal to all federal, state and local government web resources and services.